[[{"header":{"parameterUnit":"m.s-1","parameterCategory":1,"la1":30.2991,"la2":30.254,"lo1":-89.0895,"lo2":-89.0444,"dy":0.0017,"dx":0.0017,"nx":28,"ny":28,"refTime":"2025-08-26T03:00:00:Z","depth":0,"parameterNumber":2,"parameterNumberName":"U-component_of_WINDS"},"data":[0,0,0,0,0,0,0,0,0,0,0,0,0,0,0,0,0,0,0,0,0,0,0,0,0,0,0,0,0,0,0,0,0,0,0,0,0,0,0,0,0,0,0,0,0,0,0,0,0,0,0,0,0,0,0,0,0,0,-3.2295,-3.2295,0,-3.2331,-3.2331,-3.2331,-3.2196,-3.2192,-3.2188,-3.2184,-3.2222,-3.2227,-3.2231,0,0,0,0,0,0,0,0,0,0,0,0,0,-3.2108,-3.2112,-3.2294,-3.2295,-3.2295,-3.2331,-3.2331,-3.2332,-3.2196,-3.2191,-3.2187,-3.2182,-3.2221,-3.2226,-3.2232,0,0,0,0,0,0,0,0,0,0,0,0,0,-3.2171,-3.2113,-3.2294,-3.2232,-3.2227,-3.2331,-3.2331,-3.2332,-3.2197,-3.2191,-3.2185,-3.218,-3.2219,-3.2226,-3.2233,-3.2398,0,0,-3.2255,-3.2258,0,0,0,0,0,0,0,0,-3.2168,-3.2178,-3.2241,-3.2237,-3.2231,-3.2252,-3.2279,-3.2354,-3.2199,-3.2209,-3.2184,-3.2177,-3.2237,-3.2242,-3.2263,-3.24,-3.2402,-3.2255,-3.226,-3.2263,-3.2265,0,0,0,0,0,0,0,-3.2164,-3.2176,-3.2309,-3.2242,-3.2236,-3.2202,-3.2204,-3.2293,-3.2257,-3.2207,-3.2198,-3.2204,-3.2233,-3.2256,-3.2262,-3.2402,-3.2255,-3.2261,-3.2266,-3.2269,-3.2676,-3.2682,0,0,0,0,0,0,-3.2167,-3.2173,-3.2308,-3.231,-3.2184,-3.2211,-3.2213,-3.2252,-3.2255,-3.225,-3.2209,-3.2197,-3.2247,-3.2254,-3.2263,-3.2457,-3.2263,-3.2269,-3.2274,-3.267,-3.2678,-3.2685,0,0,0,0,0,0,-3.2164,-3.2181,-3.2306,-3.2239,-3.2252,-3.222,-3.2265,-3.2256,-3.2278,-3.2256,-3.2249,-3.2239,-3.2242,-3.2253,-3.2365,-3.2456,-3.2273,-3.2279,-3.2662,-3.2672,-3.2681,-3.2846,0,0,0,0,0,0,-3.2159,-3.218,-3.2243,-3.2241,-3.2256,-3.2409,-3.227,-3.2261,-3.2291,-3.2276,-3.2282,-3.2278,-3.2238,-3.2355,-3.2373,-3.2463,-3.2285,-3.2654,-3.2666,-3.2678,-3.2833,-3.286,-3.2884,0,0,0,0,0,-3.2153,-3.2289,-3.2247,-3.2264,-3.2334,-3.2414,-3.2423,-3.2374,-3.2299,-3.2361,-3.2347,-3.2278,-3.2443,-3.2368,-3.2386,-3.248,-3.2648,-3.2663,-3.2677,-3.2821,-3.2855,-3.2884,0,0,0,0,0,0,-3.2303,-3.2287,-3.2241,-3.238,-3.24,-3.2391,-3.2469,-3.2412,-3.2453,-3.2438,-3.2376,-3.2378,-3.2502,-3.2502,-3.2418,-3.264,-3.2532,-3.2552,-3.2636,-3.2668,-3.2693,-3.2691,-3.2291,0,0,0,0,0,-3.2352,-3.2418,-3.2401,-3.2525,-3.2537,-3.2502,-3.2535,-3.2495,-3.2513,-3.252,-3.2514,-3.2534,-3.259,-3.2629,-3.2679,-3.2831,-3.283,-3.2905,-3.293,-3.2952,-3.2969,-3.3049,-3.3081,-3.2733,-3.2733,-3.2732,0,0,-3.2455,-3.2455,-3.25,-3.2556,-3.2566,-3.2635,-3.251,-3.2589,-3.2639,-3.2532,-3.2638,-3.2634,-3.2652,-3.2785,-3.2843,-3.2788,-3.3065,-3.2971,-3.2988,-3.2994,-3.3067,-3.31,-3.313,-3.2743,-3.2741,-3.2739,0,0,-3.2678,-3.2684,-3.2788,-3.2801,-3.2817,-3.2792,-3.2817,-3.2817,-3.281,-3.2915,-3.2835,-3.2895,-3.2993,-3.3009,-3.303,-3.3256,-3.3194,-3.3274,-3.341,-3.3488,-3.3516,-3.354,-3.3621,-3.365,-3.3292,-3.3292,-3.3292,0,-3.2804,-3.2905,-3.2849,-3.2933,-3.296,-3.2865,-3.2969,-3.2984,-3.3017,-3.3037,-3.2976,-3.3096,-3.3102,-3.3236,-3.3291,-3.3311,-3.3338,-3.3274,-3.3516,-3.354,-3.3562,-3.3638,-3.3668,-3.3302,-3.3301,-3.33,-3.3299,0,-3.3059,-3.313,-3.3212,-3.3245,-3.3281,-3.3375,-3.3333,-3.3376,-3.3333,-3.3314,-3.3421,-3.3424,-3.3473,-3.3502,-3.3461,-3.3631,-3.3596,-3.3527,-3.3418,-3.3606,-3.3676,-3.3705,-3.3316,-3.3312,-3.3309,-3.3307,0,0,-3.3379,-3.3379,-3.341,-3.3423,-3.3433,-3.3487,-3.3577,-3.3624,-3.3661,-3.3687,-3.376,-3.3844,-3.3779,-3.3803,-3.3763,-3.3832,-3.4011,-3.3753,-3.3753,-3.3801,-3.4197,-3.425,-3.4285,-3.3968,-3.3974,-3.3978,-3.4195,0,-3.3598,-3.3751,-3.3702,-3.3856,-3.3921,-3.3831,-3.3908,-3.3923,-3.3908,-3.396,-3.3942,-3.4004,-3.3913,-3.3927,-3.3991,-3.3976,-3.4089,-3.3959,-3.4036,-3.404,-3.4036,-3.4321,-3.4378,-3.4583,-3.4223,-3.4227,-3.4231,0,-3.3874,-3.391,-3.407,-3.4068,-3.4093,-3.4164,-3.4203,-3.4254,-3.4268,-3.4252,-3.4278,-3.4223,-3.431,-3.42,-3.4318,-3.4231,-3.4259,-3.4256,-3.4263,-3.4269,-3.4147,-3.4336,-3.4647,-3.4678,-3.4274,-3.427,-3.4267,0,-3.4092,-3.418,-3.4287,-3.4301,-3.4301,-3.4353,-3.4355,-3.4363,-3.4394,-3.4428,-3.4447,-3.4491,-3.4515,-3.455,-3.4508,-3.4432,-3.4633,-3.4519,-3.4622,-3.4623,-3.4669,-3.4667,-3.4991,-3.4687,-3.4687,-3.4686,-3.4685,0,-3.4342,-3.4444,-3.4384,-3.4451,-3.4562,-3.4504,-3.4616,-3.4608,-3.4615,-3.4678,-3.4602,-3.4663,-3.4603,-3.4658,-3.4625,-3.4728,-3.474,-3.4729,-3.4719,-3.4736,-3.4738,-3.4755,-3.474,-3.4694,-3.4692,-3.4691,-3.4689,0,-3.4605,-3.4569,-3.468,-3.4671,-3.467,-3.4753,-3.4744,-3.4805,-3.4783,-3.4863,-3.4879,-3.4845,-3.4905,-3.4866,-3.4928,-3.4905,-3.504,-3.501,-3.5036,-3.5028,-3.5133,-3.5124,-3.5479,-3.5522,-3.5191,-3.5194,-3.5197,0,-3.4768,-3.4844,-3.4842,-3.4878,-3.4885,-3.4945,-3.4976,-3.4921,-3.4956,-3.4977,-3.5035,-3.5089,-3.5129,-3.523,-3.5211,-3.5257,-3.5228,-3.5349,-3.5234,-3.5249,-3.523,-3.5226,-3.5233,-3.5373,-3.5376,-3.538,-3.5382,0,-3.506,-3.5038,-3.5085,-3.5126,-3.5165,-3.5195,-3.5218,-3.5252,-3.5197,-3.524,-3.5301,-3.5332,-3.5393,-3.5448,-3.5486,-3.5487,-3.5427,-3.5418,-3.5444,-3.5463,-3.5474,-3.547,-3.5099,-3.5411,-3.5408,-3.5406,-3.5404,-3.5403,-3.5278,-3.5341,-3.5349,-3.5403,-3.5415,-3.5438,-3.5494,-3.5479,-3.5528,-3.5574,-3.5538,-3.561,-3.562,-3.5665,-3.5675,-3.573,-3.5681,-3.5719,-3.5728,-3.5739,-3.5753,-3.5465,-3.5737,-3.5736,-3.5735,-3.5734,-3.5734,0,-3.5566,-3.5566,-3.5617,-3.5651,-3.5695,-3.5631,-3.5654,-3.5694,-3.5758,-3.5773,-3.5813,-3.5882,-3.5934,-3.5918,-3.5964,-3.6011,-3.5984,-3.6025,-3.6021,-3.6023,-3.5795,-3.5768,-3.6046,-3.6046,-3.6046,-3.6046,-3.6046,-3.6046,-3.5721,-3.5824,-3.5803,-3.591,-3.5909,-3.5979,-3.5997,-3.6018,-3.6029,-3.6109,-3.6151,-3.614,-3.6142,-3.6187,-3.6232,-3.6225,-3.6246,-3.6298,-3.6282,-3.607,-3.6039,-3.6009,-3.5983,-3.6302,-3.6303,-3.6504,-3.6506,-3.6508]},{"header":{"parameterUnit":"m.s-1","parameterCategory":1,"la1":30.2991,"la2":30.254,"lo1":-89.0895,"lo2":-89.0444,"dy":0.0017,"dx":0.0017,"nx":28,"ny":28,"refTime":"2025-08-26T03:00:00:Z","depth":0,"parameterNumber":3,"parameterNumberName":"V-component_of_WINDS"},"data":[0,0,0,0,0,0,0,0,0,0,0,0,0,0,0,0,0,0,0,0,0,0,0,0,0,0,0,0,0,0,0,0,0,0,0,0,0,0,0,0,0,0,0,0,0,0,0,0,0,0,0,0,0,0,0,0,0,0,-3.1683,-3.1683,0,-3.1723,-3.1724,-3.1724,-3.1696,-3.1695,-3.1694,-3.1693,-3.1731,-3.1734,-3.1736,0,0,0,0,0,0,0,0,0,0,0,0,0,-3.1577,-3.1579,-3.1683,-3.1683,-3.1684,-3.1723,-3.1724,-3.1724,-3.1697,-3.1695,-3.1694,-3.1692,-3.1731,-3.1733,-3.1736,0,0,0,0,0,0,0,0,0,0,0,0,0,-3.1621,-3.158,-3.1683,-3.1675,-3.1674,-3.1723,-3.1724,-3.1725,-3.1697,-3.1695,-3.1693,-3.1692,-3.173,-3.1733,-3.1736,-3.1794,0,0,-3.1746,-3.1748,0,0,0,0,0,0,0,0,-3.1618,-3.1625,-3.1675,-3.1675,-3.1675,-3.1703,-3.1701,-3.1748,-3.1698,-3.1688,-3.1693,-3.1691,-3.1723,-3.1727,-3.1739,-3.1796,-3.1798,-3.1747,-3.1749,-3.175,-3.1751,0,0,0,0,0,0,0,-3.1615,-3.1623,-3.1699,-3.1676,-3.1676,-3.1668,-3.1672,-3.171,-3.1716,-3.1689,-3.1687,-3.1692,-3.1723,-3.1736,-3.1739,-3.1798,-3.1747,-3.175,-3.1752,-3.1753,-3.1903,-3.1904,0,0,0,0,0,0,-3.1613,-3.162,-3.1697,-3.17,-3.1642,-3.1671,-3.1676,-3.1696,-3.1715,-3.1717,-3.1694,-3.1691,-3.1731,-3.1736,-3.1741,-3.1808,-3.175,-3.1753,-3.1755,-3.1901,-3.1903,-3.1905,0,0,0,0,0,0,-3.1611,-3.1621,-3.1696,-3.166,-3.1669,-3.1675,-3.1698,-3.1698,-3.171,-3.1719,-3.172,-3.1706,-3.173,-3.1736,-3.1781,-3.1809,-3.1755,-3.1758,-3.1898,-3.1901,-3.1904,-3.1944,0,0,0,0,0,0,-3.1608,-3.162,-3.1643,-3.166,-3.1671,-3.1737,-3.17,-3.17,-3.1717,-3.1713,-3.1731,-3.1732,-3.1729,-3.1776,-3.1784,-3.1812,-3.176,-3.1896,-3.19,-3.1903,-3.194,-3.1948,-3.1955,0,0,0,0,0,-3.1605,-3.1653,-3.1644,-3.1654,-3.17,-3.1738,-3.1744,-3.174,-3.1719,-3.1741,-3.1747,-3.1731,-3.1805,-3.1781,-3.179,-3.1819,-3.1894,-3.1898,-3.1903,-3.1937,-3.1946,-3.1954,0,0,0,0,0,0,-3.1638,-3.1655,-3.1646,-3.1701,-3.1719,-3.1734,-3.1762,-3.1751,-3.1774,-3.177,-3.1763,-3.1767,-3.1814,-3.1821,-3.1794,-3.1875,-3.1846,-3.1852,-3.1868,-3.1878,-3.1885,-3.1881,-3.1763,0,0,0,0,0,-3.1652,-3.1683,-3.1695,-3.1743,-3.1752,-3.1756,-3.1772,-3.1768,-3.1785,-3.1792,-3.1801,-3.1817,-3.1844,-3.1861,-3.1886,-3.1941,-3.1943,-3.1966,-3.1973,-3.1979,-3.1984,-3.2012,-3.2021,-3.192,-3.192,-3.192,0,0,-3.168,-3.1693,-3.1713,-3.175,-3.1763,-3.1793,-3.1762,-3.1796,-3.1818,-3.1797,-3.1839,-3.1846,-3.1864,-3.1914,-3.1936,-3.1921,-3.2013,-3.1985,-3.199,-3.1991,-3.2017,-3.2027,-3.2035,-3.1923,-3.1922,-3.1922,0,0,-3.1747,-3.1762,-3.1802,-3.1815,-3.1835,-3.1837,-3.1847,-3.1863,-3.1867,-3.191,-3.1894,-3.192,-3.1966,-3.1979,-3.1992,-3.2063,-3.2048,-3.2071,-3.2108,-3.2135,-3.2143,-3.215,-3.2173,-3.2182,-3.2076,-3.2076,-3.2077,0,-3.178,-3.1827,-3.1823,-3.1858,-3.1874,-3.1857,-3.1896,-3.1909,-3.1936,-3.1946,-3.193,-3.1987,-3.1998,-3.2049,-3.2066,-3.2078,-3.2087,-3.2068,-3.2142,-3.2149,-3.2156,-3.2177,-3.2186,-3.2079,-3.2079,-3.2078,-3.2078,0,-3.1865,-3.1897,-3.1927,-3.1954,-3.1973,-3.201,-3.201,-3.203,-3.2023,-3.2026,-3.2069,-3.2081,-3.2108,-3.212,-3.2114,-3.217,-3.216,-3.2143,-3.2113,-3.2168,-3.2188,-3.2197,-3.2082,-3.2082,-3.2081,-3.208,0,0,-3.1954,-3.1978,-3.1988,-3.1999,-3.202,-3.2044,-3.208,-3.2106,-3.2122,-3.2141,-3.2169,-3.2208,-3.2192,-3.2207,-3.2202,-3.2226,-3.2278,-3.2206,-3.2206,-3.2217,-3.2338,-3.2349,-3.2359,-3.227,-3.2271,-3.2273,-3.2336,0,-3.2021,-3.2083,-3.208,-3.2138,-3.2167,-3.215,-3.2181,-3.2196,-3.22,-3.2223,-3.2227,-3.2254,-3.2232,-3.224,-3.2263,-3.2267,-3.2302,-3.2263,-3.2294,-3.2295,-3.2288,-3.237,-3.2382,-3.2441,-3.2344,-3.2345,-3.2346,0,-3.2107,-3.2129,-3.219,-3.2204,-3.2216,-3.2244,-3.2267,-3.229,-3.2306,-3.2307,-3.2323,-3.2314,-3.2348,-3.2318,-3.2363,-3.2337,-3.2349,-3.2353,-3.2355,-3.2356,-3.2323,-3.2372,-3.246,-3.2468,-3.2359,-3.2358,-3.2357,0,-3.2163,-3.2208,-3.225,-3.226,-3.2279,-3.2298,-3.2306,-3.2321,-3.2336,-3.2356,-3.2366,-3.2389,-3.2402,-3.2419,-3.2416,-3.2395,-3.2462,-3.2432,-3.2462,-3.2462,-3.2475,-3.2474,-3.2565,-3.2487,-3.2486,-3.2486,-3.2486,0,-3.2237,-3.2274,-3.2275,-3.23,-3.2341,-3.2337,-3.2376,-3.2383,-3.2395,-3.242,-3.2408,-3.2431,-3.2427,-3.245,-3.2448,-3.2485,-3.2491,-3.2491,-3.249,-3.2491,-3.2491,-3.2498,-3.2493,-3.2489,-3.2488,-3.2488,-3.2487,0,-3.2306,-3.2308,-3.2352,-3.2366,-3.237,-3.2399,-3.241,-3.2434,-3.2436,-3.2468,-3.2475,-3.2479,-3.2505,-3.2504,-3.2534,-3.2533,-3.2577,-3.2572,-3.2572,-3.257,-3.2598,-3.2595,-3.2696,-3.2708,-3.2623,-3.2624,-3.2625,0,-3.2352,-3.238,-3.2397,-3.2413,-3.2423,-3.2449,-3.2465,-3.2462,-3.2478,-3.2498,-3.2518,-3.2543,-3.2563,-3.2606,-3.261,-3.2633,-3.2627,-3.266,-3.263,-3.263,-3.2625,-3.2622,-3.2624,-3.2666,-3.2667,-3.2668,-3.2668,0,-3.2432,-3.2432,-3.2456,-3.2479,-3.2498,-3.2517,-3.2533,-3.2547,-3.2545,-3.2564,-3.2591,-3.2607,-3.2637,-3.2662,-3.2683,-3.269,-3.2678,-3.2678,-3.2685,-3.2686,-3.2684,-3.2683,-3.2586,-3.2675,-3.2675,-3.2674,-3.2674,-3.2673,-3.249,-3.2513,-3.2528,-3.2555,-3.2567,-3.2583,-3.2604,-3.261,-3.2632,-3.2657,-3.2654,-3.2683,-3.2697,-3.2724,-3.2733,-3.2756,-3.2743,-3.2755,-3.2757,-3.276,-3.2762,-3.2682,-3.276,-3.2759,-3.2759,-3.2759,-3.2759,0,-3.2568,-3.2577,-3.2601,-3.2625,-3.2645,-3.2633,-3.2651,-3.2668,-3.2694,-3.2708,-3.2728,-3.2758,-3.2782,-3.2788,-3.281,-3.2826,-3.2821,-3.2832,-3.283,-3.2831,-3.2773,-3.2763,-3.2836,-3.2836,-3.2836,-3.2836,-3.2836,-3.2836,-3.2611,-3.2649,-3.265,-3.2694,-3.2702,-3.2731,-3.2742,-3.2756,-3.2767,-3.2801,-3.2821,-3.2825,-3.2835,-3.2858,-3.2879,-3.288,-3.2887,-3.29,-3.2899,-3.2843,-3.2836,-3.2828,-3.2819,-3.2902,-3.2902,-3.2955,-3.2956,-3.2956]}]]